Station BRHC3 - 8467150 - Bridgeport, CT Image indicating link to RSS feed of recent meteorological observations for station BRHC3


Conditions at BRHC3 as of
(1:18 pm EDT)
1718 GMT on 05/22/2024:
     

Click on the graph icon in the table below to see a time series plot of the last five days of that observation.

5-day plot - Wind Direction Wind Direction (WDIR):SSW ( 210 deg true )
5-day plot - Wind Speed Wind Speed (WSPD): 11.1 kts
5-day plot - Wind Gust Wind Gust (GST): 17.1 kts
5-day plot - Wind Speed at 10 Meters Wind Speed at 10 meters (WSPD10M): 11.7 kts
5-day plot - Wind Speed at 20 Meters Wind Speed at 20 meters (WSPD20M): 11.7 kts
5-day plot -  Wind Speed, Wind Gust and Atmospheric Pressure Combined plot of Wind Speed, Gust, and Air Pressure
NOS Water Level Observation Network Water Level
Previous observations
TIME
(EDT)
5-day plot - Wind Direction
WDIR
 
5-day plot - Wind Speed
WSPD
kts
5-day plot - Wind Gust
GST
kts
5-day plot - Wave Height
WVHT
ft
5-day plot - Dominant Wave Period
DPD
sec
5-day plot - Average Wave Period
APD
sec
5-day plot - Mean Wave Direction
MWD
 
5-day plot - Atmospheric Pressure
PRES
in
5-day plot - Pressure Tendency
PTDY
in
5-day plot - Air Temperature
ATMP
°F
5-day plot - Water Temperature
WTMP
°F
5-day plot - Dew Point
DEWP
°F
5-day plot - Salinity
SAL
psu
5-day plot - Visibility
VIS
nmi
5-day plot - Tide (above MLLW)
TIDE
ft
2024-05-22 01:12 pmSSW 11.1 14.0------------
2024-05-22 01:06 pmSSW 11.1 15.9------------
2024-05-22 01:00 pm SW 9.9 14.0----29.88-0.05------
2024-05-22 12:54 pm SW 8.0 14.0----29.88-------
2024-05-22 12:48 pm SW 8.9 12.0------------
2024-05-22 12:42 pmSSW 8.0 12.0------------
2024-05-22 12:36 pmSSW 8.9 12.0------------
2024-05-22 12:30 pm SW 8.9 12.0------------
2024-05-22 12:24 pm SW 8.0 12.0------------
2024-05-22 12:18 pm SW 8.0 12.0------ 76.5-----
2024-05-22 12:12 pmSSW 7.0 13.0------ 76.3-----
2024-05-22 12:06 pm SW 9.9 13.0------ 75.7-----
2024-05-22 12:00 pmSSW 8.9 12.0----29.91-0.03 75.4-----
2024-05-22 11:54 amSSW 9.9 12.0----29.91- 75.4-----
2024-05-22 11:48 am SW 8.9 13.0----29.91- 75.0-----
2024-05-22 11:42 amSSW 8.9 13.0----29.91- 74.7-----
2024-05-22 11:36 am SW 8.0 13.0----29.91- 74.3-----
2024-05-22 11:30 amSSW 8.9 12.0----29.91- 73.0-----
2024-05-22 11:24 amSSW 8.9 12.0----29.91- 73.2-----
2024-05-22 11:18 amSSW 8.0 13.0----29.91- 72.7-----
2024-05-22 11:12 amSSW 8.9 13.0----29.91- 72.3-----
2024-05-22 11:06 amSSW 8.0 12.0----29.92- 71.8-----
2024-05-22 11:00 amSSW 8.0 11.1----29.92-0.02 71.8-----
2024-05-22 10:54 am SW 7.0 11.1----29.92- 72.0-----
2024-05-22 10:48 amSSW 8.0 11.1----29.93-------
2024-05-22 10:42 amSSW 8.0 12.0----29.92-------
2024-05-22 10:36 amSSW 7.0 9.9----29.92-------
2024-05-22 10:30 amSSW 7.0 9.9------------
2024-05-22 10:24 am SW 7.0 9.9------------
2024-05-22 10:18 am SW 7.0 8.9------------
2024-05-22 10:12 amSSW 7.0 8.9------------
2024-05-22 10:06 amSSW 7.0 11.1------------
2024-05-22 10:00 amSSW 8.0 9.9----29.93-0.01 69.6-----
2024-05-22 09:54 amSSW 8.9 9.9----29.93- 68.9-----
2024-05-22 09:48 amSSW 8.0 11.1----29.93-------
2024-05-22 09:42 am S 6.0 8.9----29.93-------
2024-05-22 09:36 amSSW 6.0 9.9----29.93-------
2024-05-22 09:30 amSSW 7.0 9.9------------
2024-05-22 09:24 amSSW 7.0 8.9------------
2024-05-22 09:18 amSSW 6.0 8.0----29.94-------
2024-05-22 09:12 amSSW 6.0 8.0----29.94-------
2024-05-22 09:06 amSSW 5.1 8.0----29.94-------
2024-05-22 09:00 am S 4.1 6.0----29.94-0.01 66.4-----
2024-05-22 08:54 am S 5.1 7.0----29.94- 66.7-----
2024-05-22 08:48 am S 4.1 7.0----29.94- 66.7-----
2024-05-22 08:42 am S 4.1 5.1----29.94- 66.4-----
2024-05-22 08:36 amSSE 4.1 5.1----29.94- 65.7-----
2024-05-22 08:30 am S 4.1 6.0----29.94- 65.5-----
2024-05-22 08:24 amSSE 5.1 6.0----29.94- 64.8-----
2024-05-22 08:18 amSSE 4.1 5.1----29.94- 64.2-----
2024-05-22 08:12 am S 4.1 4.1----29.94- 65.1-----
2024-05-22 08:06 amSSE 1.9 4.1----29.94- 64.9-----
2024-05-22 08:00 am S 4.1 6.0----29.94+0.03 64.6-----
2024-05-22 07:54 amSSE 5.1 6.0----29.93- 63.7-----
2024-05-22 07:48 am S 4.1 5.1----29.94- 65.1-----
2024-05-22 07:42 am S 2.9 4.1----29.94- 65.1-----
2024-05-22 07:36 amSSW 4.1 5.1----29.94- 65.1-----
2024-05-22 07:30 amSSW 4.1 6.0----29.94- 64.9-----
2024-05-22 07:24 amSSW 4.1 5.1----29.94- 64.9-----
2024-05-22 07:18 amSSW 1.9 4.1----29.94- 64.8-----
2024-05-22 07:12 amSSW 1.9 7.0----29.94- 64.6-----
2024-05-22 07:06 am SW 2.9 7.0----29.94- 64.6-----
2024-05-22 07:00 am SW 4.1 7.0----29.94+0.04 64.4-----
2024-05-22 06:54 am SW 5.1 7.0----29.94- 64.4-----
2024-05-22 06:48 am SW 1.9 5.1----29.94- 64.2-----
2024-05-22 06:42 am SW 1.9 2.9----29.94- 63.9-----
2024-05-22 06:36 amWSW 1.9 2.9----29.94- 63.0-----
2024-05-22 06:30 am SW 1.9 2.9----29.94- 62.4-----
2024-05-22 06:24 amWSW 1.0 2.9----29.95- 62.6-----
2024-05-22 06:18 am- 0.0 1.9----29.95- 62.2-----
2024-05-22 06:12 amNNW 1.0 1.9----29.94- 61.5-----
2024-05-22 06:06 am- 0.0 1.9----29.94- 61.0-----
2024-05-22 06:00 am- 0.0 1.0----29.95+0.04 60.3-----
2024-05-22 05:54 am- 0.0 1.9----29.94- 59.4-----
2024-05-22 05:48 am N 1.0 1.9----29.94- 58.8-----
2024-05-22 05:42 am N 1.0 1.9----29.94- 58.6-----
2024-05-22 05:36 am N 1.0 2.9----29.93- 58.5-----
2024-05-22 05:30 am N 1.9 2.9----29.93- 58.6-----
2024-05-22 05:24 am N 1.9 2.9----29.93- 58.6-----
2024-05-22 05:18 amNNW 1.0 1.9----29.92- 58.6-----
2024-05-22 05:12 am N 1.9 1.9----29.92- 58.6-----
2024-05-22 05:06 am N 1.9 1.9----29.92- 58.5-----
2024-05-22 05:00 am N 1.9 1.9----29.91+0.00 58.6-----
2024-05-22 04:54 am N 1.0 2.9----29.91- 58.6-----
2024-05-22 04:48 amNNE 1.9 1.9----29.91- 58.8-----
2024-05-22 04:42 am N 1.9 2.9----29.91- 59.0-----
2024-05-22 04:36 amNNW 1.0 1.0----29.91- 59.2-----
2024-05-22 04:30 am N 1.0 1.9----29.91- 59.4-----
2024-05-22 04:24 am N 1.9 1.9----29.91- 59.4-----
2024-05-22 04:18 amNNW 1.9 2.9----29.91- 59.4-----
2024-05-22 04:12 am N 1.9 2.9----29.91- 59.4-----
2024-05-22 04:06 am N 1.9 2.9----29.90- 59.4-----
2024-05-22 04:00 am N 2.9 2.9----29.91+0.00 59.4-----
2024-05-22 03:54 am N 1.9 1.9----29.90- 59.5-----
2024-05-22 03:48 am N 1.9 1.9----29.91- 59.7-----
2024-05-22 03:42 am N 2.9 2.9----29.91- 59.7-----
2024-05-22 03:36 am N 1.9 1.9----29.91- 59.9-----
2024-05-22 03:30 am N 1.9 1.9----29.91- 59.9-----
2024-05-22 03:24 am N 1.9 1.9----29.91- 60.1-----
2024-05-22 03:18 am N 1.0 1.9----29.90- 60.1-----
2024-05-22 03:12 am- 0.0 1.0----29.90- 60.6-----
2024-05-22 03:06 am- 0.0 1.9----29.90- 60.8-----
2024-05-22 03:00 amWSW 1.0 2.9----29.90-0.01 60.8-----
2024-05-22 02:54 am SW 1.9 2.9----29.90- 60.8-----
2024-05-22 02:48 amSSW 1.9 1.9----29.90- 60.8-----
2024-05-22 02:42 amSSW 1.0 2.9----29.90- 60.6-----
2024-05-22 02:36 am S 1.9 2.9----29.91- 60.8-----
2024-05-22 02:30 amSSE 1.9 2.9----29.91- 60.6-----
2024-05-22 02:24 am S 1.9 4.1----29.91- 60.8-----
2024-05-22 02:18 am S 1.9 2.9----29.91- 61.0-----
2024-05-22 02:12 amSSE 1.0 1.9----29.91- 61.0-----
2024-05-22 02:06 am S 1.9 1.9----29.91- 61.2-----
2024-05-22 02:00 am S 1.0 1.9----29.91+0.00 61.2-----
2024-05-22 01:54 am S 1.0 1.9----29.91- 61.2-----
2024-05-22 01:48 am- 0.0 0.0----29.91- 61.2-----
2024-05-22 01:42 am- 0.0 2.9----29.91- 61.3-----
2024-05-22 01:36 am SW 1.9 2.9----29.90- 61.2-----
2024-05-22 01:30 am SW 1.9 4.1----29.91- 61.2-----
2024-05-22 01:24 amSSW 4.1 5.1----29.91- 61.2-----
2024-05-22 01:18 amSSW 1.9 1.9----29.91- 61.2-----
2024-05-22 01:12 amSSW 1.9 1.9----29.91- 61.3-----
2024-05-22 01:06 am S 1.0 1.9----29.91- 61.3-----
2024-05-22 01:00 amSSW 1.0 1.9----29.91+0.00 61.3-----
2024-05-22 12:54 am S 1.0 2.9----29.91- 61.3-----
2024-05-22 12:48 amSSW 1.9 4.1----29.91- 61.5-----
2024-05-22 12:42 am SW 4.1 5.1----29.91- 61.5-----
2024-05-22 12:36 amSSW 4.1 5.1----29.91- 61.5-----
2024-05-22 12:30 amSSW 4.1 5.1----29.91- 61.5-----
2024-05-22 12:24 amSSW 4.1 5.1----29.91- 61.7-----
2024-05-22 12:18 am S 1.9 2.9----29.91- 61.9-----
2024-05-22 12:12 am S 1.9 4.1----29.91- 62.1-----
2024-05-22 12:06 am S 2.9 4.1----29.91- 62.1-----
2024-05-22 12:00 amSSW 2.9 4.1----29.91+0.01 62.2-----
2024-05-21 11:54 pm SW 2.9 2.9----29.91- 62.2-----
2024-05-21 11:48 pmSSW 1.0 1.9----29.91- 62.2-----
2024-05-21 11:42 pm S 1.9 2.9----29.91- 62.1-----
2024-05-21 11:36 pm S 1.9 2.9----29.91- 62.1-----
2024-05-21 11:30 pm S 2.9 5.1----29.91- 62.1-----
2024-05-21 11:24 pmSSE 2.9 4.1----29.91- 62.2-----
2024-05-21 11:18 pm S 2.9 2.9----29.91- 62.4-----
2024-05-21 11:12 pm S 1.9 2.9----29.91- 62.6-----
2024-05-21 11:06 pm- 0.0 4.1----29.91- 62.8-----
2024-05-21 11:00 pmSSW 1.9 2.9----29.91+0.01 63.0-----
2024-05-21 10:54 pm S 1.0 1.9----29.91- 63.1-----
2024-05-21 10:48 pm- 0.0 2.9----29.91- 63.0-----
2024-05-21 10:42 pm S 1.0 1.9----29.91- 63.3-----
2024-05-21 10:36 pmSSW 2.9 4.1----29.91- 63.5-----
2024-05-21 10:30 pm SW 1.9 4.1----29.91- 63.5-----
2024-05-21 10:24 pm SW 1.0 1.9----29.91- 63.5-----
2024-05-21 10:18 pmSSW 1.9 4.1----29.91- 63.7-----
2024-05-21 10:12 pmSSW 2.9 4.1----29.91- 63.7-----
2024-05-21 10:06 pmSSW 4.1 5.1----29.91- 63.9-----
2024-05-21 10:00 pmSSW 1.9 4.1----29.91+0.02 64.2-----
2024-05-21 09:54 pmSSW 2.9 5.1----29.91- 64.4-----
2024-05-21 09:48 pmSSW 4.1 4.1----29.90- 64.2-----
2024-05-21 09:42 pmSSW 2.9 2.9----29.90- 64.2-----
2024-05-21 09:36 pmSSW 2.9 2.9----29.90- 64.0-----
2024-05-21 09:30 pmSSW 1.9 2.9----29.90- 64.2-----
2024-05-21 09:24 pmSSW 2.9 4.1----29.90- 64.2-----
2024-05-21 09:18 pm- 0.0 2.9----29.91- 64.0-----
2024-05-21 09:12 pm S 2.9 4.1----29.90- 64.4-----
2024-05-21 09:06 pmSSW 2.9 2.9----29.90- 64.8-----
2024-05-21 09:00 pmSSW 1.9 2.9----29.90+0.02 64.8-----
2024-05-21 08:54 pm SE 1.0 4.1----29.90- 64.4-----
2024-05-21 08:48 pmSSE 1.9 4.1----29.90- 64.9-----
2024-05-21 08:42 pm S 1.0 2.9----29.90- 65.5-----
2024-05-21 08:36 pmSSW 2.9 4.1----29.90- 65.7-----
2024-05-21 08:30 pmSSW 2.9 4.1----29.90- 65.7-----
2024-05-21 08:24 pm S 1.9 4.1----29.90- 65.3-----
2024-05-21 08:18 pmSSE 2.9 4.1----29.90- 65.1-----
2024-05-21 08:12 pmSSW 2.9 4.1----29.90- 66.2-----
2024-05-21 08:06 pm S 1.9 4.1----29.90- 66.4-----
2024-05-21 08:00 pmSSW 2.9 5.1----29.90+0.00 66.4-----
2024-05-21 07:54 pm S 2.9 5.1----29.90- 66.6-----
2024-05-21 07:48 pmSSW 4.1 6.0----29.90- 66.6-----
2024-05-21 07:42 pm S 5.1 7.0----29.90- 66.7-----
2024-05-21 07:36 pm S 5.1 6.0----29.90- 66.7-----
2024-05-21 07:30 pm S 4.1 6.0----29.90- 66.9-----
2024-05-21 07:24 pm S 5.1 6.0----29.89- 67.1-----
2024-05-21 07:00 pm S 4.1 7.0----29.89+0.00 67.1-----
2024-05-21 06:54 pm S 5.1 7.0----29.89- 67.5-----
2024-05-21 06:48 pmSSE 2.9 4.1----29.89- 67.5-----
2024-05-21 06:42 pm S 2.9 5.1----29.89- 67.3-----
2024-05-21 06:36 pmSSE 4.1 6.0----29.89- 66.9-----
2024-05-21 06:30 pmSSE 4.1 6.0----29.89- 66.9-----
2024-05-21 06:24 pmSSE 5.1 7.0----29.88- 66.7-----
2024-05-21 06:18 pmSSE 5.1 7.0----29.88- 66.7-----
2024-05-21 06:12 pmSSE 5.1 8.0----29.88- 66.4-----
2024-05-21 06:06 pmSSE 5.1 6.0----29.88- 66.4-----
2024-05-21 06:00 pm S 4.1 7.0----29.88-0.02 67.1-----
2024-05-21 05:54 pm S 5.1 7.0----29.88- 67.5-----
2024-05-21 05:48 pmSSE 2.9 6.0----29.89- 67.8-----
2024-05-21 05:42 pmSSE 2.9 6.0----29.89- 67.8-----
2024-05-21 05:36 pm S 4.1 6.0----29.89- 68.4-----
2024-05-21 05:30 pm S 5.1 6.0----29.89-------
2024-05-21 05:24 pm S 5.1 8.0----29.89-------
2024-05-21 05:18 pm S 6.0 11.1----29.89-------
2024-05-21 05:12 pmSSE 5.1 6.0----29.89-------
2024-05-21 05:06 pmSSE 5.1 8.0----29.89-------
2024-05-21 05:00 pmSSE 5.1 6.0----29.89-0.02 67.5-----
2024-05-21 04:54 pmSSE 5.1 6.0----29.89- 67.5-----
2024-05-21 04:48 pmSSE 5.1 6.0----29.89-------
2024-05-21 04:42 pmSSE 4.1 5.1----29.89-------
2024-05-21 04:36 pmSSE 5.1 5.1----29.89-------
2024-05-21 04:30 pmSSE 2.9 4.1----29.89-------
2024-05-21 04:24 pm SE 2.9 5.1----29.89-------
2024-05-21 04:18 pmSSE 4.1 5.1----29.89-------
2024-05-21 04:12 pmSSE 5.1 6.0----29.89-------
2024-05-21 04:06 pmSSE 6.0 6.0----29.89-------
2024-05-21 04:00 pmSSE 5.1 6.0----29.90-0.03 66.6-----
2024-05-21 03:54 pmSSE 6.0 7.0----29.90- 66.0-----
2024-05-21 03:48 pmSSE 5.1 6.0----29.90-------
2024-05-21 03:42 pm SE 5.1 6.0----29.90-------
2024-05-21 03:36 pmSSE 6.0 7.0----29.90-------
2024-05-21 03:30 pmSSE 6.0 8.0------------
2024-05-21 03:24 pmSSE 7.0 7.0------------
2024-05-21 03:18 pmSSE 6.0 7.0----29.90- 65.5-----
2024-05-21 03:12 pm SE 5.1 6.0----29.91- 65.3-----
2024-05-21 03:06 pm SE 6.0 7.0----29.91- 64.8-----
2024-05-21 03:00 pm SE 6.0 7.0----29.91-0.04 64.9-----
2024-05-21 02:54 pmSSE 6.0 8.0----29.91- 64.4-----
2024-05-21 02:48 pmSSE 7.0 8.0----29.91- 64.0-----
2024-05-21 02:42 pmSSE 6.0 8.0----29.91- 64.0-----
2024-05-21 02:36 pmSSE 7.0 7.0----29.91- 63.5-----
2024-05-21 02:30 pmSSE 7.0 8.0----29.91- 63.0-----
2024-05-21 02:24 pmSSE 8.0 8.0----29.91- 63.1-----
2024-05-21 02:18 pmSSE 6.0 7.0----29.91- 63.3-----
2024-05-21 02:12 pm SE 7.0 8.9----29.91- 63.5-----
2024-05-21 02:06 pmSSE 7.0 8.9----29.91- 63.5-----
2024-05-21 02:00 pmSSE 8.9 9.9----29.91-0.05 63.0-----
2024-05-21 01:54 pmSSE 8.0 9.9----29.91- 63.7-----
2024-05-21 01:48 pmSSE 8.9 8.9----29.91- 63.5-----
2024-05-21 01:42 pm SE 8.9 9.9----29.92- 63.7-----
2024-05-21 01:36 pmSSE 8.9 9.9----29.92- 63.7-----
2024-05-21 01:30 pmSSE 8.9 11.1----29.92- 63.0-----
2024-05-21 01:24 pmSSE 8.9 11.1----29.92- 63.3-----
2024-05-21 01:18 pmSSE 8.0 8.9----29.92- 63.7-----
2024-05-21 01:12 pmSSE 7.0 8.9----29.92- 64.4-----
2024-05-21 01:06 pmSSE 7.0 8.0----29.92- 65.1-----
2024-05-21 01:00 pm S 6.0 8.9----29.93-0.04 66.7-----
2024-05-21 12:54 pm S 5.1 8.0----29.93- 66.9-----